[[{"header":{"parameterUnit":"m.s-1","parameterCategory":1,"la1":30.2991,"la2":30.254,"lo1":-89.0895,"lo2":-89.0444,"dy":0.0017,"dx":0.0017,"nx":28,"ny":28,"refTime":"2023-09-09T21:00:00:Z","depth":0,"parameterNumber":2,"parameterNumberName":"U-component_of_WINDS"},"data":[0,0,0,0,0,0,0,0,0,0,0,0,0,0,0,0,0,0,0,0,0,0,0,0,0,0,0,0,0,0,0,0,0,0,0,0,0,0,0,0,0,0,0,0,0,0,0,0,0,0,0,0,0,0,0,0,0,0,1.0389,1.039,0,1.0451,1.0452,1.0453,1.045,1.045,1.0449,1.0448,1.0513,1.0515,1.0518,0,0,0,0,0,0,0,0,0,0,0,0,0,1.0268,1.027,1.0389,1.039,1.0391,1.0451,1.0452,1.0453,1.0451,1.0449,1.0448,1.0447,1.0512,1.0515,1.0518,0,0,0,0,0,0,0,0,0,0,0,0,0,1.0325,1.0271,1.0389,1.0397,1.0398,1.0451,1.0452,1.0453,1.0451,1.0449,1.0448,1.0447,1.0511,1.0515,1.0518,1.0568,0,0,1.053,1.0532,0,0,0,0,0,0,0,0,1.0321,1.0329,1.0395,1.0396,1.0398,1.0442,1.0433,1.0492,1.0451,1.0431,1.0448,1.0446,1.049,1.0496,1.051,1.0571,1.0574,1.053,1.0533,1.0534,1.0535,0,0,0,0,0,0,0,1.0317,1.0326,1.0414,1.0396,1.0398,1.0397,1.0404,1.0444,1.0467,1.0432,1.0432,1.044,1.0491,1.0507,1.0512,1.0575,1.053,1.0534,1.0536,1.0537,1.0679,1.068,0,0,0,0,0,0,1.0312,1.0323,1.0412,1.0416,1.0356,1.04,1.0408,1.0429,1.0467,1.0471,1.0441,1.0439,1.0501,1.0507,1.0514,1.0574,1.0534,1.0538,1.054,1.0677,1.0679,1.0681,0,0,0,0,0,0,1.0309,1.032,1.0409,1.0369,1.0381,1.0404,1.0428,1.0431,1.0447,1.0473,1.0477,1.0453,1.05,1.0509,1.0554,1.0576,1.0539,1.0543,1.0676,1.0678,1.068,1.0694,0,0,0,0,0,0,1.0306,1.0319,1.0338,1.037,1.0383,1.0449,1.0429,1.0433,1.0453,1.0452,1.0485,1.049,1.05,1.0549,1.0558,1.0581,1.0546,1.0674,1.0677,1.0679,1.0692,1.0697,1.0701,0,0,0,0,0,1.0301,1.034,1.0339,1.035,1.0407,1.045,1.0457,1.0468,1.0455,1.0474,1.0491,1.0488,1.0572,1.0553,1.0564,1.0588,1.0672,1.0676,1.0679,1.069,1.0696,1.0701,0,0,0,0,0,0,1.031,1.0344,1.0344,1.0394,1.0419,1.0449,1.0474,1.0474,1.0503,1.0501,1.0513,1.0521,1.0566,1.0582,1.056,1.0638,1.0621,1.0626,1.0626,1.0631,1.0636,1.063,1.0549,0,0,0,0,0,1.0318,1.035,1.0378,1.0419,1.0432,1.0451,1.047,1.0476,1.0502,1.0513,1.0533,1.0559,1.0591,1.0612,1.0644,1.0695,1.0701,1.0716,1.0721,1.0724,1.0729,1.0756,1.0762,1.0692,1.0692,1.0691,0,0,1.0335,1.0357,1.0376,1.0422,1.0442,1.0474,1.046,1.0495,1.0519,1.0518,1.0562,1.0578,1.0608,1.0656,1.0679,1.0671,1.075,1.0729,1.0731,1.0734,1.076,1.0766,1.0772,1.0694,1.0693,1.0693,0,0,1.0381,1.0401,1.0437,1.0458,1.0488,1.0501,1.0509,1.054,1.055,1.0594,1.0595,1.0624,1.0679,1.07,1.0718,1.0771,1.077,1.0781,1.0804,1.083,1.0836,1.0841,1.0859,1.0865,1.0786,1.0786,1.0786,0,1.0397,1.0446,1.0456,1.0491,1.0511,1.0512,1.0548,1.0567,1.0607,1.062,1.0611,1.068,1.07,1.0753,1.0766,1.0781,1.079,1.0777,1.0834,1.0839,1.0844,1.0861,1.0868,1.0787,1.0787,1.0787,1.0787,0,1.0464,1.0497,1.0523,1.056,1.0583,1.0619,1.0634,1.0656,1.066,1.0673,1.0718,1.0742,1.0778,1.0791,1.0795,1.0844,1.0838,1.0832,1.0814,1.0852,1.0868,1.0875,1.0789,1.0788,1.0788,1.0788,0,0,1.0517,1.0559,1.0568,1.0585,1.0619,1.0645,1.068,1.0715,1.0732,1.076,1.0789,1.0836,1.083,1.085,1.0857,1.088,1.0919,1.087,1.0871,1.0878,1.0973,1.0977,1.0984,1.0919,1.092,1.0921,1.097,0,1.0565,1.0628,1.0638,1.0693,1.0724,1.0725,1.0756,1.078,1.0793,1.0821,1.0836,1.0868,1.0858,1.087,1.0893,1.091,1.0938,1.0906,1.0946,1.0947,1.0937,1.0993,1.0997,1.1042,1.0977,1.0978,1.0978,0,1.063,1.0658,1.0716,1.0745,1.0758,1.0786,1.0817,1.0844,1.0871,1.0879,1.0902,1.0906,1.0942,1.0924,1.0974,1.0952,1.0969,1.098,1.0982,1.0985,1.0964,1.0996,1.1057,1.1063,1.0989,1.0988,1.0987,0,1.0661,1.0714,1.0755,1.0769,1.0804,1.0823,1.0839,1.0865,1.0884,1.0912,1.0925,1.0957,1.0975,1.0999,1.1012,1.0998,1.1061,1.1044,1.1068,1.1067,1.108,1.1079,1.1143,1.1093,1.1093,1.1093,1.1093,0,1.0714,1.0749,1.0769,1.0794,1.0833,1.0845,1.0883,1.0899,1.0921,1.0949,1.0953,1.0979,1.0994,1.1022,1.1033,1.1072,1.108,1.1087,1.1089,1.1086,1.1085,1.1096,1.1093,1.1095,1.1094,1.1094,1.1093,0,1.0755,1.077,1.0815,1.0844,1.0852,1.088,1.0905,1.0929,1.0942,1.0977,1.0986,1.1007,1.104,1.1055,1.1097,1.1103,1.1148,1.1148,1.1138,1.1139,1.1161,1.1158,1.1233,1.1243,1.1188,1.1189,1.1189,0,1.0787,1.0814,1.0846,1.0864,1.088,1.0911,1.0931,1.0943,1.0964,1.0996,1.1016,1.105,1.1077,1.113,1.1149,1.118,1.1181,1.1205,1.1185,1.1181,1.1179,1.1177,1.1179,1.1208,1.1209,1.1209,1.1209,0,1.0841,1.0847,1.0876,1.0907,1.0931,1.0956,1.0981,1.0996,1.1012,1.1035,1.1069,1.109,1.1132,1.1164,1.1197,1.1213,1.1214,1.1215,1.1222,1.1219,1.1211,1.1214,1.1146,1.1213,1.1213,1.1213,1.1213,1.1212,1.0878,1.0901,1.0927,1.0959,1.0979,1.1002,1.1025,1.1041,1.107,1.1104,1.111,1.1146,1.1172,1.1215,1.1232,1.126,1.1254,1.1265,1.1267,1.1269,1.127,1.1208,1.1267,1.1266,1.1266,1.1266,1.1266,0,1.0932,1.0948,1.0977,1.1011,1.1036,1.1035,1.1062,1.1082,1.1113,1.1137,1.1164,1.1202,1.1234,1.1255,1.1287,1.1305,1.1306,1.1313,1.1311,1.1314,1.1274,1.1264,1.1311,1.1311,1.1311,1.1311,1.1311,1.1311,1.0962,1.1001,1.1011,1.1059,1.1076,1.1111,1.1126,1.1147,1.1166,1.1208,1.1235,1.1248,1.1271,1.1304,1.1333,1.1338,1.1349,1.1356,1.1361,1.1322,1.1317,1.1313,1.1304,1.1359,1.1359,1.1399,1.1399,1.1399]},{"header":{"parameterUnit":"m.s-1","parameterCategory":1,"la1":30.2991,"la2":30.254,"lo1":-89.0895,"lo2":-89.0444,"dy":0.0017,"dx":0.0017,"nx":28,"ny":28,"refTime":"2023-09-09T21:00:00:Z","depth":0,"parameterNumber":3,"parameterNumberName":"V-component_of_WINDS"},"data":[0,0,0,0,0,0,0,0,0,0,0,0,0,0,0,0,0,0,0,0,0,0,0,0,0,0,0,0,0,0,0,0,0,0,0,0,0,0,0,0,0,0,0,0,0,0,0,0,0,0,0,0,0,0,0,0,0,0,1.5541,1.5543,0,1.5694,1.5696,1.5698,1.5736,1.5735,1.5734,1.5733,1.5885,1.589,1.5895,0,0,0,0,0,0,0,0,0,0,0,0,0,1.5273,1.5278,1.5541,1.5543,1.5545,1.5694,1.5696,1.5698,1.5736,1.5735,1.5734,1.5732,1.5883,1.5889,1.5895,0,0,0,0,0,0,0,0,0,0,0,0,0,1.5404,1.5279,1.554,1.5582,1.5587,1.5693,1.5696,1.5699,1.5736,1.5735,1.5733,1.5732,1.5881,1.5888,1.5896,1.5971,0,0,1.5918,1.5922,0,0,0,0,0,0,0,0,1.5396,1.5414,1.5574,1.5579,1.5585,1.5694,1.5657,1.579,1.5737,1.5679,1.5733,1.5731,1.5822,1.5834,1.5866,1.5978,1.5984,1.5919,1.5924,1.5927,1.5929,0,0,0,0,0,0,0,1.5387,1.5407,1.5601,1.5576,1.5583,1.559,1.5607,1.5683,1.5757,1.5684,1.5687,1.5705,1.5825,1.5859,1.587,1.5987,1.5919,1.5926,1.593,1.5933,1.6162,1.6164,0,0,0,0,0,0,1.5372,1.5399,1.5596,1.5606,1.5485,1.5596,1.5615,1.5661,1.5756,1.577,1.5706,1.5706,1.5847,1.5861,1.5876,1.5967,1.5927,1.5934,1.5938,1.6161,1.6163,1.6164,0,0,0,0,0,0,1.5366,1.5389,1.559,1.5504,1.553,1.5602,1.5653,1.5664,1.5699,1.5773,1.5786,1.5728,1.5847,1.5865,1.5946,1.5973,1.5937,1.5944,1.6159,1.6161,1.6163,1.6151,0,0,0,0,0,0,1.5358,1.5387,1.5418,1.5504,1.5534,1.5661,1.5655,1.5669,1.5712,1.5714,1.5797,1.5809,1.5847,1.5935,1.5953,1.5982,1.595,1.6157,1.616,1.6163,1.615,1.6153,1.6156,0,0,0,0,0,1.5349,1.5409,1.542,1.5443,1.5575,1.5662,1.5679,1.5723,1.5714,1.5744,1.5791,1.5806,1.5967,1.5943,1.5964,1.5996,1.6155,1.6159,1.6162,1.6148,1.6152,1.6156,0,0,0,0,0,0,1.5323,1.5421,1.5434,1.5525,1.5585,1.5669,1.5709,1.5727,1.579,1.5788,1.5838,1.5856,1.5933,1.5973,1.5944,1.607,1.606,1.6069,1.6042,1.6047,1.605,1.6038,1.5956,0,0,0,0,0,1.5329,1.5393,1.5474,1.5545,1.5575,1.5636,1.5676,1.5704,1.5768,1.5793,1.5847,1.5906,1.597,1.6011,1.6073,1.6155,1.6172,1.6187,1.619,1.6192,1.6198,1.624,1.6247,1.6176,1.6176,1.6176,0,0,1.5339,1.5401,1.5438,1.5542,1.5592,1.5655,1.5658,1.5725,1.5771,1.5803,1.5883,1.5923,1.5993,1.6073,1.6111,1.6108,1.6221,1.6197,1.6198,1.6203,1.6245,1.6251,1.6257,1.6179,1.6178,1.6178,0,0,1.5391,1.5445,1.5509,1.5559,1.5635,1.5675,1.569,1.577,1.5799,1.5879,1.5903,1.5957,1.6067,1.6114,1.6153,1.6217,1.6232,1.6236,1.6252,1.6293,1.6298,1.6303,1.6324,1.6331,1.6242,1.6242,1.6242,0,1.5395,1.5493,1.5539,1.5605,1.5648,1.568,1.5743,1.5788,1.588,1.5907,1.5903,1.6038,1.6088,1.6178,1.6193,1.6224,1.624,1.6227,1.6294,1.63,1.6305,1.6325,1.6333,1.6242,1.6242,1.6242,1.6242,0,1.5491,1.5558,1.56,1.5689,1.5736,1.58,1.5853,1.5896,1.5918,1.5957,1.6036,1.6096,1.617,1.6193,1.6217,1.6286,1.6281,1.6285,1.6275,1.6311,1.633,1.6338,1.6242,1.6242,1.6242,1.6242,0,0,1.5533,1.5645,1.5659,1.5698,1.5782,1.5833,1.5896,1.597,1.6003,1.6064,1.6116,1.6206,1.6209,1.6252,1.628,1.6316,1.6359,1.6315,1.6317,1.6319,1.6435,1.643,1.6439,1.6369,1.6371,1.6372,1.6428,0,1.5593,1.571,1.5752,1.5847,1.5907,1.5936,1.599,1.6046,1.6083,1.6137,1.6178,1.624,1.624,1.6266,1.6303,1.6346,1.6383,1.6343,1.6415,1.6417,1.6396,1.6449,1.6446,1.6496,1.6436,1.6437,1.6438,0,1.568,1.5743,1.5843,1.5917,1.5944,1.5992,1.606,1.6113,1.6175,1.6199,1.6245,1.627,1.6334,1.632,1.6406,1.6378,1.6409,1.6435,1.6437,1.6445,1.6429,1.6456,1.6513,1.652,1.6451,1.645,1.6449,0,1.5697,1.5806,1.588,1.5912,1.6001,1.6033,1.6071,1.6132,1.6172,1.623,1.6256,1.632,1.6355,1.6403,1.6443,1.6431,1.6524,1.6515,1.6543,1.6542,1.6562,1.656,1.6622,1.6584,1.6584,1.6584,1.6584,0,1.5759,1.5819,1.5888,1.5933,1.5999,1.6045,1.6109,1.6148,1.6201,1.6251,1.628,1.6327,1.6378,1.6429,1.6461,1.6525,1.6541,1.656,1.6567,1.6557,1.6554,1.6578,1.6575,1.6586,1.6585,1.6585,1.6585,0,1.579,1.5839,1.592,1.5997,1.6017,1.6062,1.6126,1.6169,1.6206,1.6269,1.6287,1.6345,1.6407,1.6452,1.6532,1.6553,1.6621,1.6629,1.66,1.6604,1.6628,1.6625,1.6708,1.672,1.6674,1.6675,1.6675,0,1.5826,1.5872,1.5953,1.599,1.6028,1.6087,1.6127,1.6172,1.6213,1.6285,1.6318,1.6382,1.6436,1.6533,1.6581,1.6641,1.6649,1.6674,1.6659,1.6645,1.6647,1.6643,1.6646,1.6676,1.6676,1.6677,1.6677,0,1.5883,1.5904,1.5963,1.6029,1.6077,1.6131,1.6185,1.6212,1.6266,1.631,1.6374,1.6416,1.6497,1.6559,1.6623,1.6659,1.6675,1.6681,1.669,1.668,1.666,1.6669,1.6604,1.6679,1.6679,1.6679,1.6679,1.6678,1.5916,1.5957,1.602,1.6083,1.6128,1.6177,1.6221,1.6263,1.6318,1.6389,1.6411,1.6477,1.6533,1.6621,1.6657,1.6707,1.6706,1.672,1.6723,1.6726,1.6724,1.6653,1.6719,1.6719,1.6719,1.6719,1.6719,0,1.5972,1.6014,1.6072,1.6146,1.6195,1.6208,1.6267,1.6306,1.6364,1.6417,1.6469,1.654,1.66,1.6651,1.6711,1.6741,1.675,1.6755,1.6753,1.676,1.6723,1.6708,1.6747,1.6747,1.6747,1.6747,1.6747,1.6747,1.6008,1.6078,1.6106,1.6197,1.6237,1.6303,1.6335,1.6379,1.6421,1.65,1.655,1.6583,1.6634,1.6698,1.6752,1.6765,1.6785,1.6788,1.6802,1.6767,1.6763,1.676,1.6746,1.6792,1.6792,1.6836,1.6836,1.6836]}]]